Time,TemperatureF,DewpointF,PressureIn,WindDirection,WindDirectionDegrees,WindSpeedMPH,WindSpeedGustMPH,Humidity,HourlyPrecipIn,Conditions,Clouds,dailyrainin,SolarRadiationWatts/m^2,SoftwareType,DateUTC
2013-06-28 00:04:00,76.0,64.2,29.91,East,88,0.0,0.0,67,0.00,,,0.00,0,Wunderground v.1.15,2013-06-28 07:04:00,
2013-06-28 00:10:00,75.8,64.5,29.91,East,88,0.0,0.0,68,0.00,,,0.00,0,Wunderground v.1.15,2013-06-28 07:10:00,
2013-06-28 00:16:00,75.5,64.2,29.91,East,88,0.0,0.0,68,0.00,,,0.00,0,Wunderground v.1.15,2013-06-28 07:16:00,
2013-06-28 00:22:00,75.2,64.3,29.91,East,88,0.0,0.0,69,0.00,,,0.00,0,Wunderground v.1.15,2013-06-28 07:22:00,
2013-06-28 00:28:00,74.9,64.0,29.91,East,88,0.0,0.0,69,0.00,,,0.00,0,Wunderground v.1.15,2013-06-28 07:28:00,
2013-06-28 00:34:00,74.6,64.2,29.91,East,88,0.0,0.0,70,0.00,,,0.00,0,Wunderground v.1.15,2013-06-28 07:34:00,
2013-06-28 00:40:00,74.3,63.9,29.91,East,88,0.0,0.0,70,0.00,,,0.00,0,Wunderground v.1.15,2013-06-28 07:40:00,
2013-06-28 00:46:00,74.1,64.1,29.90,East,88,0.0,0.0,71,0.00,,,0.00,0,Wunderground v.1.15,2013-06-28 07:46:00,
2013-06-28 00:52:00,73.8,64.2,29.90,East,88,0.0,0.0,72,0.00,,,0.00,0,Wunderground v.1.15,2013-06-28 07:52:00,
2013-06-28 00:58:00,73.6,64.4,29.90,East,88,0.0,0.0,73,0.00,,,0.00,0,Wunderground v.1.15,2013-06-28 07:58:00,
2013-06-28 01:04:00,73.5,64.7,29.90,East,88,0.0,0.0,74,0.00,,,0.00,0,Wunderground v.1.15,2013-06-28 08:04:00,
2013-06-28 01:10:00,73.3,64.5,29.90,East,88,0.0,0.0,74,0.00,,,0.00,0,Wunderground v.1.15,2013-06-28 08:10:00,
2013-06-28 01:16:00,73.2,64.8,29.90,East,88,0.0,0.0,75,0.00,,,0.00,0,Wunderground v.1.15,2013-06-28 08:16:00,
2013-06-28 01:22:00,73.0,64.6,29.90,East,88,0.0,0.0,75,0.00,,,0.00,0,Wunderground v.1.15,2013-06-28 08:22:00,
2013-06-28 01:28:00,72.8,64.4,29.90,East,88,0.0,0.0,75,0.00,,,0.00,0,Wunderground v.1.15,2013-06-28 08:28:00,
2013-06-28 01:34:00,72.6,64.6,29.90,East,88,0.0,0.0,76,0.00,,,0.00,0,Wunderground v.1.15,2013-06-28 08:34:00,
2013-06-28 01:40:00,72.4,64.4,29.90,East,88,0.0,0.0,76,0.00,,,0.00,0,Wunderground v.1.15,2013-06-28 08:40:00,
2013-06-28 01:46:00,72.4,64.8,29.90,East,88,0.0,0.0,77,0.00,,,0.00,0,Wunderground v.1.15,2013-06-28 08:46:00,
2013-06-28 01:52:00,72.5,64.9,29.90,East,88,0.0,0.0,77,0.00,,,0.00,0,Wunderground v.1.15,2013-06-28 08:52:00,
2013-06-28 01:58:00,72.7,64.7,29.90,East,88,0.0,0.0,76,0.00,,,0.00,0,Wunderground v.1.15,2013-06-28 08:58:00,
2013-06-28 02:04:00,72.8,64.4,29.90,East,88,0.0,0.0,75,0.00,,,0.00,0,Wunderground v.1.15,2013-06-28 09:04:00,
2013-06-28 02:10:00,72.8,64.4,29.89,East,88,0.0,0.0,75,0.00,,,0.00,0,Wunderground v.1.15,2013-06-28 09:10:00,
2013-06-28 02:16:00,72.7,64.3,29.90,East,88,0.0,0.0,75,0.00,,,0.00,0,Wunderground v.1.15,2013-06-28 09:16:00,
2013-06-28 02:22:00,72.6,64.2,29.90,East,88,0.0,0.0,75,0.00,,,0.00,0,Wunderground v.1.15,2013-06-28 09:22:00,
2013-06-28 02:28:00,72.5,64.5,29.90,East,88,0.0,0.0,76,0.00,,,0.00,0,Wunderground v.1.15,2013-06-28 09:28:00,
2013-06-28 02:34:00,72.5,64.9,29.90,East,88,0.0,0.0,77,0.00,,,0.00,0,Wunderground v.1.15,2013-06-28 09:34:00,
2013-06-28 02:40:00,72.6,65.7,29.90,East,88,0.0,0.0,79,0.00,,,0.00,0,Wunderground v.1.15,2013-06-28 09:40:00,
2013-06-28 02:46:00,72.5,66.3,29.90,East,88,0.0,0.0,81,0.00,,,0.00,0,Wunderground v.1.15,2013-06-28 09:46:00,
2013-06-28 02:52:00,72.2,66.4,29.90,East,88,0.0,0.0,82,0.00,,,0.00,0,Wunderground v.1.15,2013-06-28 09:52:00,
2013-06-28 02:58:00,71.8,66.4,29.90,East,88,0.0,0.0,83,0.00,,,0.00,0,Wunderground v.1.15,2013-06-28 09:58:00,
2013-06-28 03:04:00,71.4,66.0,29.90,East,88,0.0,0.0,83,0.00,,,0.00,0,Wunderground v.1.15,2013-06-28 10:04:00,
2013-06-28 03:10:00,71.0,65.9,29.90,East,88,0.0,0.0,84,0.00,,,0.00,0,Wunderground v.1.15,2013-06-28 10:10:00,
2013-06-28 03:16:00,70.7,65.6,29.89,East,88,0.0,0.0,84,0.00,,,0.00,0,Wunderground v.1.15,2013-06-28 10:16:00,
2013-06-28 03:22:00,70.3,65.2,29.89,East,88,0.0,0.0,84,0.00,,,0.00,0,Wunderground v.1.15,2013-06-28 10:22:00,
2013-06-28 03:28:00,70.0,64.9,29.89,East,88,0.0,0.0,84,0.00,,,0.00,0,Wunderground v.1.15,2013-06-28 10:28:00,
2013-06-28 03:34:00,69.7,64.3,29.89,East,88,0.0,0.0,83,0.00,,,0.00,0,Wunderground v.1.15,2013-06-28 10:34:00,
2013-06-28 03:40:00,69.6,64.2,29.89,East,88,0.0,0.0,83,0.00,,,0.00,0,Wunderground v.1.15,2013-06-28 10:40:00,
2013-06-28 03:46:00,69.5,64.1,29.89,East,88,0.0,0.0,83,0.00,,,0.00,0,Wunderground v.1.15,2013-06-28 10:46:00,
2013-06-28 03:52:00,69.4,64.0,29.90,East,88,0.0,0.0,83,0.00,,,0.00,0,Wunderground v.1.15,2013-06-28 10:52:00,
2013-06-28 03:58:00,69.2,63.8,29.90,East,88,0.0,0.0,83,0.00,,,0.00,0,Wunderground v.1.15,2013-06-28 10:58:00,
2013-06-28 04:04:00,69.0,63.3,29.90,East,88,0.0,3.0,82,0.00,,,0.00,0,Wunderground v.1.15,2013-06-28 11:04:00,
2013-06-28 04:10:00,68.9,63.5,29.89,East,88,0.0,0.0,83,0.00,,,0.00,0,Wunderground v.1.15,2013-06-28 11:10:00,
2013-06-28 04:16:00,68.7,63.3,29.89,East,88,0.0,0.0,83,0.00,,,0.00,0,Wunderground v.1.15,2013-06-28 11:16:00,
2013-06-28 04:22:00,68.6,63.2,29.89,East,88,0.0,0.0,83,0.00,,,0.00,0,Wunderground v.1.15,2013-06-28 11:22:00,
2013-06-28 04:28:00,68.5,63.1,29.89,East,88,0.0,0.0,83,0.00,,,0.00,0,Wunderground v.1.15,2013-06-28 11:28:00,
2013-06-28 04:34:00,68.4,63.0,29.89,East,88,0.0,0.0,83,0.00,,,0.00,0,Wunderground v.1.15,2013-06-28 11:34:00,
2013-06-28 04:40:00,68.2,62.8,29.89,East,88,0.0,0.0,83,0.00,,,0.00,0,Wunderground v.1.15,2013-06-28 11:40:00,
2013-06-28 04:46:00,68.0,62.6,29.89,East,88,0.0,0.0,83,0.00,,,0.00,0,Wunderground v.1.15,2013-06-28 11:46:00,
2013-06-28 04:52:00,67.8,62.4,29.89,East,88,0.0,0.0,83,0.00,,,0.00,0,Wunderground v.1.15,2013-06-28 11:52:00,
2013-06-28 04:58:00,67.8,62.8,29.89,East,88,0.0,0.0,84,0.00,,,0.00,0,Wunderground v.1.15,2013-06-28 11:58:00,
2013-06-28 05:04:00,67.8,62.8,29.89,East,88,0.0,0.0,84,0.00,,,0.00,0,Wunderground v.1.15,2013-06-28 12:04:00,
2013-06-28 05:10:00,67.9,63.2,29.89,East,88,0.0,0.0,85,0.00,,,0.00,0,Wunderground v.1.15,2013-06-28 12:10:00,
2013-06-28 05:16:00,68.0,63.3,29.89,East,88,0.0,0.0,85,0.00,,,0.00,0,Wunderground v.1.15,2013-06-28 12:16:00,
2013-06-28 05:22:00,68.2,63.5,29.89,East,88,0.0,0.0,85,0.00,,,0.00,0,Wunderground v.1.15,2013-06-28 12:22:00,
2013-06-28 05:28:00,68.3,63.6,29.89,East,88,0.0,0.0,85,0.00,,,0.00,0,Wunderground v.1.15,2013-06-28 12:28:00,
2013-06-28 05:34:00,68.5,63.8,29.89,East,88,0.0,0.0,85,0.00,,,0.00,0,Wunderground v.1.15,2013-06-28 12:34:00,
2013-06-28 05:40:00,68.7,64.0,29.89,East,88,0.0,0.0,85,0.00,,,0.00,0,Wunderground v.1.15,2013-06-28 12:40:00,
2013-06-28 05:46:00,68.8,64.1,29.88,East,88,0.0,0.0,85,0.00,,,0.00,5,Wunderground v.1.15,2013-06-28 12:46:00,
2013-06-28 05:52:00,68.9,64.2,29.89,East,88,0.0,0.0,85,0.00,,,0.00,7,Wunderground v.1.15,2013-06-28 12:52:00,
2013-06-28 05:58:00,69.0,64.0,29.89,East,88,0.0,0.0,84,0.00,,,0.00,11,Wunderground v.1.15,2013-06-28 12:58:00,
2013-06-28 06:04:00,69.3,64.3,29.89,East,88,0.0,0.0,84,0.00,,,0.00,12,Wunderground v.1.15,2013-06-28 13:04:00,
2013-06-28 06:10:00,69.5,64.1,29.89,East,88,0.0,0.0,83,0.00,,,0.00,14,Wunderground v.1.15,2013-06-28 13:10:00,
2013-06-28 06:16:00,69.5,64.1,29.89,East,88,0.0,0.0,83,0.00,,,0.00,16,Wunderground v.1.15,2013-06-28 13:16:00,
2013-06-28 06:22:00,69.4,64.0,29.89,East,88,0.0,0.0,83,0.00,,,0.00,18,Wunderground v.1.15,2013-06-28 13:22:00,
2013-06-28 06:28:00,69.4,64.0,29.89,East,88,0.0,0.0,83,0.00,,,0.00,19,Wunderground v.1.15,2013-06-28 13:28:00,
2013-06-28 06:34:00,69.3,63.9,29.89,East,88,0.0,0.0,83,0.00,,,0.00,26,Wunderground v.1.15,2013-06-28 13:34:00,
2013-06-28 06:40:00,69.4,64.0,29.90,East,88,0.0,0.0,83,0.00,,,0.00,23,Wunderground v.1.15,2013-06-28 13:40:00,
2013-06-28 06:46:00,69.5,63.8,29.90,East,88,0.0,0.0,82,0.00,,,0.00,25,Wunderground v.1.15,2013-06-28 13:46:00,
2013-06-28 06:52:00,69.7,63.6,29.90,East,88,0.0,0.0,81,0.00,,,0.00,25,Wunderground v.1.15,2013-06-28 13:52:00,
2013-06-28 06:58:00,70.0,63.9,29.90,East,88,0.0,0.0,81,0.00,,,0.00,26,Wunderground v.1.15,2013-06-28 13:58:00,
2013-06-28 07:04:00,70.5,63.7,29.90,East,88,0.0,1.0,79,0.00,,,0.00,26,Wunderground v.1.15,2013-06-28 14:04:00,
2013-06-28 07:10:00,71.1,63.5,29.90,East,88,0.0,0.0,77,0.00,,,0.00,28,Wunderground v.1.15,2013-06-28 14:10:00,
2013-06-28 07:16:00,71.9,63.5,29.90,East,88,0.0,0.0,75,0.00,,,0.00,28,Wunderground v.1.15,2013-06-28 14:16:00,
2013-06-28 07:22:00,72.6,63.8,29.90,East,88,0.0,0.0,74,0.00,,,0.00,30,Wunderground v.1.15,2013-06-28 14:22:00,
2013-06-28 07:28:00,73.2,64.0,29.90,East,88,0.0,0.0,73,0.00,,,0.00,30,Wunderground v.1.15,2013-06-28 14:28:00,
2013-06-28 07:34:00,74.1,64.1,29.90,East,88,0.0,0.0,71,0.00,,,0.00,32,Wunderground v.1.15,2013-06-28 14:34:00,
2013-06-28 07:40:00,74.9,64.5,29.90,East,88,0.0,0.0,70,0.00,,,0.00,32,Wunderground v.1.15,2013-06-28 14:40:00,
2013-06-28 07:46:00,75.6,64.7,29.90,East,88,0.0,0.0,69,0.00,,,0.00,93,Wunderground v.1.15,2013-06-28 14:46:00,
2013-06-28 07:52:00,76.4,65.1,29.90,East,88,0.0,0.0,68,0.00,,,0.00,309,Wunderground v.1.15,2013-06-28 14:52:00,
2013-06-28 07:58:00,77.3,65.1,29.90,East,79,0.0,3.0,66,0.00,,,0.00,327,Wunderground v.1.15,2013-06-28 14:58:00,
2013-06-28 08:04:00,78.3,65.1,29.90,NE,53,0.0,0.0,64,0.00,,,0.00,346,Wunderground v.1.15,2013-06-28 15:04:00,
2013-06-28 08:10:00,79.2,65.1,29.90,NNW,340,0.0,0.0,62,0.00,,,0.00,366,Wunderground v.1.15,2013-06-28 15:10:00,
2013-06-28 08:16:00,80.0,65.3,29.90,NNW,330,1.0,1.0,61,0.00,,,0.00,385,Wunderground v.1.15,2013-06-28 15:16:00,
2013-06-28 08:22:00,80.5,64.9,29.90,NW,321,1.0,1.0,59,0.00,,,0.00,404,Wunderground v.1.15,2013-06-28 15:22:00,
2013-06-28 08:28:00,81.1,64.9,29.90,NW,304,2.0,3.0,58,0.00,,,0.00,424,Wunderground v.1.15,2013-06-28 15:28:00,
2013-06-28 08:34:00,81.5,65.3,29.90,NW,324,2.0,2.0,58,0.00,,,0.00,441,Wunderground v.1.15,2013-06-28 15:34:00,
2013-06-28 08:40:00,82.0,65.3,29.90,NNW,327,3.0,9.0,57,0.00,,,0.00,461,Wunderground v.1.15,2013-06-28 15:40:00,
2013-06-28 08:46:00,82.5,64.7,29.90,NW,315,2.0,9.0,55,0.00,,,0.00,480,Wunderground v.1.15,2013-06-28 15:46:00,
2013-06-28 08:52:00,82.9,65.6,29.90,NNW,333,2.0,2.0,56,0.00,,,0.00,499,Wunderground v.1.15,2013-06-28 15:52:00,
2013-06-28 08:58:00,83.5,65.1,29.90,NNW,338,1.0,2.0,54,0.00,,,0.00,519,Wunderground v.1.15,2013-06-28 15:58:00,
2013-06-28 09:04:00,84.1,65.7,29.90,NW,317,1.0,8.0,54,0.00,,,0.00,536,Wunderground v.1.15,2013-06-28 16:04:00,
2013-06-28 09:10:00,84.6,65.6,29.89,NNW,333,1.0,1.0,53,0.00,,,0.00,555,Wunderground v.1.15,2013-06-28 16:10:00,
2013-06-28 09:16:00,85.2,66.1,29.89,North,351,1.0,1.0,53,0.00,,,0.00,575,Wunderground v.1.15,2013-06-28 16:16:00,
2013-06-28 09:22:00,85.7,66.0,29.89,NNE,21,1.0,2.0,52,0.00,,,0.00,592,Wunderground v.1.15,2013-06-28 16:22:00,
2013-06-28 09:28:00,86.0,66.3,29.89,NNW,330,1.0,3.0,52,0.00,,,0.00,610,Wunderground v.1.15,2013-06-28 16:28:00,
2013-06-28 09:34:00,86.9,67.2,29.89,NNE,23,1.0,1.0,52,0.00,,,0.00,628,Wunderground v.1.15,2013-06-28 16:34:00,
2013-06-28 09:40:00,87.8,67.4,29.89,North,360,1.0,1.0,51,0.00,,,0.00,647,Wunderground v.1.15,2013-06-28 16:40:00,
2013-06-28 09:46:00,88.1,66.5,29.89,NNE,32,1.0,1.0,49,0.00,,,0.00,663,Wunderground v.1.15,2013-06-28 16:46:00,
2013-06-28 09:52:00,88.3,66.1,29.89,North,5,1.0,1.0,48,0.00,,,0.00,686,Wunderground v.1.15,2013-06-28 16:52:00,
2013-06-28 09:58:00,88.3,66.7,29.89,North,360,0.0,1.0,49,0.00,,,0.00,696,Wunderground v.1.15,2013-06-28 16:58:00,
2013-06-28 10:04:00,88.5,66.9,29.89,NNE,32,1.0,10.0,49,0.00,,,0.00,715,Wunderground v.1.15,2013-06-28 17:04:00,
2013-06-28 10:10:00,88.9,67.9,29.89,NNE,13,1.0,1.0,50,0.00,,,0.00,729,Wunderground v.1.15,2013-06-28 17:10:00,
2013-06-28 10:16:00,89.4,66.5,29.89,North,5,0.0,1.0,47,0.00,,,0.00,745,Wunderground v.1.15,2013-06-28 17:16:00,
2013-06-28 10:22:00,89.7,65.5,29.88,NNW,344,1.0,1.0,45,0.00,,,0.00,761,Wunderground v.1.15,2013-06-28 17:22:00,
2013-06-28 10:28:00,89.9,65.1,29.88,NNE,18,1.0,1.0,44,0.00,,,0.00,775,Wunderground v.1.15,2013-06-28 17:28:00,
2013-06-28 10:34:00,90.5,67.5,29.88,NNW,331,1.0,2.0,47,0.00,,,0.00,789,Wunderground v.1.15,2013-06-28 17:34:00,
2013-06-28 10:40:00,91.0,66.1,29.88,NNE,26,1.0,1.0,44,0.00,,,0.00,802,Wunderground v.1.15,2013-06-28 17:40:00,
2013-06-28 10:46:00,91.2,66.9,29.88,North,355,1.0,1.0,45,0.00,,,0.00,817,Wunderground v.1.15,2013-06-28 17:46:00,
2013-06-28 10:52:00,91.7,66.7,29.88,NW,306,0.0,0.0,44,0.00,,,0.00,830,Wunderground v.1.15,2013-06-28 17:52:00,
2013-06-28 10:58:00,92.2,66.5,29.88,NNE,26,1.0,2.0,43,0.00,,,0.00,840,Wunderground v.1.15,2013-06-28 17:58:00,
2013-06-28 11:04:00,92.8,67.0,29.88,NNE,25,1.0,11.0,43,0.00,,,0.00,858,Wunderground v.1.15,2013-06-28 18:04:00,
2013-06-28 11:10:00,93.1,67.3,29.88,NW,321,1.0,1.0,43,0.00,,,0.00,868,Wunderground v.1.15,2013-06-28 18:10:00,
2013-06-28 11:16:00,93.0,65.8,29.88,NW,315,2.0,5.0,41,0.00,,,0.00,877,Wunderground v.1.15,2013-06-28 18:16:00,
2013-06-28 11:22:00,93.2,67.4,29.88,NE,51,2.0,2.0,43,0.00,,,0.00,889,Wunderground v.1.15,2013-06-28 18:22:00,
2013-06-28 11:28:00,93.7,67.1,29.88,NW,308,0.0,2.0,42,0.00,,,0.00,904,Wunderground v.1.15,2013-06-28 18:28:00,
2013-06-28 11:34:00,94.1,67.5,29.88,NNE,17,0.0,0.0,42,0.00,,,0.00,909,Wunderground v.1.15,2013-06-28 18:34:00,
2013-06-28 11:40:00,94.3,67.0,29.88,NW,315,1.0,1.0,41,0.00,,,0.00,918,Wunderground v.1.15,2013-06-28 18:40:00,
2013-06-28 11:46:00,94.8,67.4,29.87,North,9,2.0,2.0,41,0.00,,,0.00,928,Wunderground v.1.15,2013-06-28 18:46:00,
2013-06-28 11:52:00,95.3,67.9,29.87,North,355,1.0,2.0,41,0.00,,,0.00,937,Wunderground v.1.15,2013-06-28 18:52:00,
2013-06-28 11:58:00,95.2,67.1,29.87,NW,318,1.0,4.0,40,0.00,,,0.00,944,Wunderground v.1.15,2013-06-28 18:58:00,
2013-06-28 12:04:00,95.6,68.1,29.87,NW,321,1.0,10.0,41,0.00,,,0.00,949,Wunderground v.1.15,2013-06-28 19:04:00,
2013-06-28 12:10:00,95.6,67.4,29.87,NNE,13,1.0,1.0,40,0.00,,,0.00,958,Wunderground v.1.15,2013-06-28 19:10:00,
2013-06-28 12:16:00,96.0,67.0,29.87,NW,319,1.0,2.0,39,0.00,,,0.00,965,Wunderground v.1.15,2013-06-28 19:16:00,
2013-06-28 12:22:00,96.2,68.0,29.87,NNE,21,0.0,1.0,40,0.00,,,0.00,970,Wunderground v.1.15,2013-06-28 19:22:00,
2013-06-28 12:28:00,96.6,68.3,29.86,NNE,24,0.0,1.0,40,0.00,,,0.00,977,Wunderground v.1.15,2013-06-28 19:28:00,
2013-06-28 12:34:00,96.9,67.1,29.86,NNE,33,1.0,3.0,38,0.00,,,0.00,981,Wunderground v.1.15,2013-06-28 19:34:00,
2013-06-28 12:40:00,97.1,67.3,29.86,North,360,0.0,0.0,38,0.00,,,0.00,986,Wunderground v.1.15,2013-06-28 19:40:00,
2013-06-28 12:46:00,97.4,66.8,29.86,NW,322,1.0,1.0,37,0.00,,,0.00,988,Wunderground v.1.15,2013-06-28 19:46:00,
2013-06-28 12:52:00,97.9,67.2,29.86,NW,322,1.0,1.0,37,0.00,,,0.00,993,Wunderground v.1.15,2013-06-28 19:52:00,
2013-06-28 12:58:00,98.2,68.2,29.86,NW,322,0.0,1.0,38,0.00,,,0.00,993,Wunderground v.1.15,2013-06-28 19:58:00,
2013-06-28 13:04:00,98.6,66.2,29.86,NW,322,0.0,11.0,35,0.00,,,0.00,997,Wunderground v.1.15,2013-06-28 20:04:00,
2013-06-28 13:10:00,98.7,65.5,29.85,NW,321,0.0,0.0,34,0.00,,,0.00,995,Wunderground v.1.15,2013-06-28 20:10:00,
2013-06-28 13:16:00,98.9,68.9,29.85,NW,321,0.0,0.0,38,0.00,,,0.00,993,Wunderground v.1.15,2013-06-28 20:16:00,
2013-06-28 13:22:00,99.3,67.6,29.85,NW,321,0.0,1.0,36,0.00,,,0.00,993,Wunderground v.1.15,2013-06-28 20:22:00,
2013-06-28 13:28:00,99.0,68.2,29.85,WNW,296,1.0,2.0,37,0.00,,,0.00,991,Wunderground v.1.15,2013-06-28 20:28:00,
2013-06-28 13:34:00,98.8,67.2,29.85,West,277,1.0,3.0,36,0.00,,,0.00,991,Wunderground v.1.15,2013-06-28 20:34:00,
2013-06-28 13:40:00,98.9,65.6,29.84,West,277,1.0,1.0,34,0.00,,,0.00,990,Wunderground v.1.15,2013-06-28 20:40:00,
2013-06-28 13:46:00,99.2,65.9,29.84,West,260,1.0,1.0,34,0.00,,,0.00,990,Wunderground v.1.15,2013-06-28 20:46:00,
2013-06-28 13:52:00,99.5,63.5,29.84,West,260,1.0,1.0,31,0.00,,,0.00,983,Wunderground v.1.15,2013-06-28 20:52:00,
2013-06-28 13:58:00,100.0,65.7,29.84,West,260,1.0,1.0,33,0.00,,,0.00,979,Wunderground v.1.15,2013-06-28 20:58:00,
2013-06-28 14:04:00,100.3,66.0,29.84,West,260,1.0,6.0,33,0.00,,,0.00,974,Wunderground v.1.15,2013-06-28 21:04:00,
2013-06-28 14:10:00,100.4,66.9,29.83,West,260,2.0,2.0,34,0.00,,,0.00,969,Wunderground v.1.15,2013-06-28 21:10:00,
2013-06-28 14:16:00,100.8,68.1,29.83,SE,141,1.0,2.0,35,0.00,,,0.00,967,Wunderground v.1.15,2013-06-28 21:16:00,
2013-06-28 14:22:00,101.3,66.9,29.83,SSE,148,1.0,1.0,33,0.00,,,0.00,962,Wunderground v.1.15,2013-06-28 21:22:00,
2013-06-28 14:28:00,101.1,66.7,29.83,SSE,148,1.0,2.0,33,0.00,,,0.00,956,Wunderground v.1.15,2013-06-28 21:28:00,
2013-06-28 14:34:00,101.3,66.9,29.82,SSE,161,1.0,2.0,33,0.00,,,0.00,944,Wunderground v.1.15,2013-06-28 21:34:00,
2013-06-28 14:40:00,101.4,67.0,29.82,SSE,159,2.0,2.0,33,0.00,,,0.00,940,Wunderground v.1.15,2013-06-28 21:40:00,
2013-06-28 14:46:00,101.6,68.0,29.82,SSE,158,2.0,3.0,34,0.00,,,0.00,930,Wunderground v.1.15,2013-06-28 21:46:00,
2013-06-28 14:52:00,101.9,68.3,29.82,SSE,159,1.0,1.0,34,0.00,,,0.00,923,Wunderground v.1.15,2013-06-28 21:52:00,
2013-06-28 14:58:00,102.5,67.9,29.82,SE,131,2.0,4.0,33,0.00,,,0.00,916,Wunderground v.1.15,2013-06-28 21:58:00,
2013-06-28 15:04:00,102.9,69.1,29.82,SE,129,2.0,6.0,34,0.00,,,0.00,905,Wunderground v.1.15,2013-06-28 22:04:00,
2013-06-28 15:10:00,102.9,68.3,29.81,SE,128,2.0,2.0,33,0.00,,,0.00,895,Wunderground v.1.15,2013-06-28 22:10:00,
2013-06-28 15:16:00,103.1,70.1,29.81,ESE,122,2.0,9.0,35,0.00,,,0.00,884,Wunderground v.1.15,2013-06-28 22:16:00,
2013-06-28 15:22:00,103.2,69.4,29.81,SE,130,2.0,2.0,34,0.00,,,0.00,867,Wunderground v.1.15,2013-06-28 22:22:00,
2013-06-28 15:28:00,103.3,69.5,29.81,SE,136,2.0,4.0,34,0.00,,,0.00,860,Wunderground v.1.15,2013-06-28 22:28:00,
2013-06-28 15:34:00,103.1,67.5,29.80,SE,129,1.0,2.0,32,0.00,,,0.00,851,Wunderground v.1.15,2013-06-28 22:34:00,
2013-06-28 15:40:00,103.2,68.5,29.80,ESE,118,2.0,2.0,33,0.00,,,0.00,838,Wunderground v.1.15,2013-06-28 22:40:00,
2013-06-28 15:46:00,103.6,69.7,29.80,SE,143,1.0,4.0,34,0.00,,,0.00,824,Wunderground v.1.15,2013-06-28 22:46:00,
2013-06-28 15:52:00,103.8,68.1,29.79,SE,141,1.0,1.0,32,0.00,,,0.00,812,Wunderground v.1.15,2013-06-28 22:52:00,
2013-06-28 15:58:00,103.9,68.2,29.79,ESE,122,1.0,1.0,32,0.00,,,0.00,795,Wunderground v.1.15,2013-06-28 22:58:00,
2013-06-28 16:04:00,104.0,69.2,29.79,SE,135,1.0,6.0,33,0.00,,,0.00,784,Wunderground v.1.15,2013-06-28 23:04:00,
2013-06-28 16:10:00,103.8,69.0,29.78,SSE,162,1.0,1.0,33,0.00,,,0.00,768,Wunderground v.1.15,2013-06-28 23:10:00,
2013-06-28 16:16:00,104.0,68.3,29.78,SE,144,1.0,3.0,32,0.00,,,0.00,756,Wunderground v.1.15,2013-06-28 23:16:00,
2013-06-28 16:22:00,104.3,67.6,29.78,SSE,148,1.0,4.0,31,0.00,,,0.00,737,Wunderground v.1.15,2013-06-28 23:22:00,
2013-06-28 16:28:00,104.1,68.4,29.77,SSE,168,1.0,4.0,32,0.00,,,0.00,726,Wunderground v.1.15,2013-06-28 23:28:00,
2013-06-28 16:34:00,104.3,67.6,29.78,SSE,155,1.0,5.0,31,0.00,,,0.00,712,Wunderground v.1.15,2013-06-28 23:34:00,
2013-06-28 16:40:00,104.0,67.4,29.77,SSE,156,1.0,1.0,31,0.00,,,0.00,693,Wunderground v.1.15,2013-06-28 23:40:00,
2013-06-28 16:46:00,104.0,69.2,29.77,SSE,155,0.0,1.0,33,0.00,,,0.00,677,Wunderground v.1.15,2013-06-28 23:46:00,
2013-06-28 16:52:00,104.0,70.1,29.77,SSE,159,0.0,5.0,34,0.00,,,0.00,659,Wunderground v.1.15,2013-06-28 23:52:00,
2013-06-28 16:58:00,103.6,68.9,29.77,South,169,1.0,5.0,33,0.00,,,0.00,642,Wunderground v.1.15,2013-06-28 23:58:00,
2013-06-28 17:04:00,103.8,67.2,29.77,SE,125,1.0,10.0,31,0.00,,,0.00,624,Wunderground v.1.15,2013-06-29 00:04:00,
2013-06-28 17:10:00,104.0,68.3,29.77,SE,140,1.0,1.0,32,0.00,,,0.00,605,Wunderground v.1.15,2013-06-29 00:10:00,
2013-06-28 17:16:00,104.3,68.6,29.76,SE,127,1.0,2.0,32,0.00,,,0.00,587,Wunderground v.1.15,2013-06-29 00:16:00,
2013-06-28 17:22:00,104.1,69.3,29.76,SE,130,1.0,2.0,33,0.00,,,0.00,568,Wunderground v.1.15,2013-06-29 00:22:00,
2013-06-28 17:28:00,104.2,69.4,29.76,SE,127,1.0,5.0,33,0.00,,,0.00,550,Wunderground v.1.15,2013-06-29 00:28:00,
2013-06-28 17:34:00,104.2,68.5,29.76,ESE,118,1.0,1.0,32,0.00,,,0.00,531,Wunderground v.1.15,2013-06-29 00:34:00,
2013-06-28 17:40:00,104.0,70.1,29.76,ESE,122,1.0,5.0,34,0.00,,,0.00,512,Wunderground v.1.15,2013-06-29 00:40:00,
2013-06-28 17:46:00,103.7,69.8,29.76,ESE,113,1.0,5.0,34,0.00,,,0.00,494,Wunderground v.1.15,2013-06-29 00:46:00,
2013-06-28 17:52:00,103.4,69.6,29.76,SE,138,1.0,1.0,34,0.00,,,0.00,475,Wunderground v.1.15,2013-06-29 00:52:00,
2013-06-28 17:58:00,103.5,68.8,29.76,SE,124,2.0,2.0,33,0.00,,,0.00,455,Wunderground v.1.15,2013-06-29 00:58:00,
2013-06-28 18:04:00,103.3,69.5,29.76,ESE,119,1.0,7.0,34,0.00,,,0.00,436,Wunderground v.1.15,2013-06-29 01:04:00,
2013-06-28 18:10:00,102.9,68.3,29.76,ESE,123,2.0,2.0,33,0.00,,,0.00,415,Wunderground v.1.15,2013-06-29 01:10:00,
2013-06-28 18:16:00,102.8,69.0,29.76,SE,130,2.0,2.0,34,0.00,,,0.00,399,Wunderground v.1.15,2013-06-29 01:16:00,
2013-06-28 18:22:00,102.7,69.0,29.75,SE,129,2.0,2.0,34,0.00,,,0.00,374,Wunderground v.1.15,2013-06-29 01:22:00,
2013-06-28 18:28:00,102.3,68.6,29.76,ESE,109,2.0,5.0,34,0.00,,,0.00,355,Wunderground v.1.15,2013-06-29 01:28:00,
2013-06-28 18:34:00,102.0,69.2,29.75,SE,130,3.0,3.0,35,0.00,,,0.00,336,Wunderground v.1.15,2013-06-29 01:34:00,
2013-06-28 18:40:00,101.6,69.7,29.75,ESE,120,3.0,4.0,36,0.00,,,0.00,316,Wunderground v.1.15,2013-06-29 01:40:00,
2013-06-28 18:46:00,101.5,70.4,29.75,SE,125,3.0,6.0,37,0.00,,,0.00,297,Wunderground v.1.15,2013-06-29 01:46:00,
2013-06-28 18:52:00,101.2,70.1,29.75,ESE,119,3.0,5.0,37,0.00,,,0.00,278,Wunderground v.1.15,2013-06-29 01:52:00,
2013-06-28 18:58:00,100.9,69.8,29.75,ESE,105,3.0,5.0,37,0.00,,,0.00,258,Wunderground v.1.15,2013-06-29 01:58:00,
2013-06-28 19:04:00,100.5,69.5,29.75,ESE,113,3.0,7.0,37,0.00,,,0.00,239,Wunderground v.1.15,2013-06-29 02:04:00,
2013-06-28 19:10:00,100.2,69.2,29.75,ESE,112,4.0,4.0,37,0.00,,,0.00,214,Wunderground v.1.15,2013-06-29 02:10:00,
2013-06-28 19:16:00,99.8,68.9,29.74,SE,135,3.0,7.0,37,0.00,,,0.00,192,Wunderground v.1.15,2013-06-29 02:16:00,
2013-06-28 19:22:00,99.5,68.6,29.75,ESE,105,3.0,8.0,37,0.00,,,0.00,169,Wunderground v.1.15,2013-06-29 02:22:00,
2013-06-28 19:28:00,99.1,69.0,29.75,SE,125,3.0,8.0,38,0.00,,,0.00,146,Wunderground v.1.15,2013-06-29 02:28:00,
2013-06-28 19:34:00,98.6,69.4,29.75,ESE,117,3.0,5.0,39,0.00,,,0.00,121,Wunderground v.1.15,2013-06-29 02:34:00,
2013-06-28 19:40:00,98.1,68.9,29.74,ESE,111,2.0,2.0,39,0.00,,,0.00,100,Wunderground v.1.15,2013-06-29 02:40:00,
2013-06-28 19:46:00,97.8,68.6,29.75,ESE,112,1.0,3.0,39,0.00,,,0.00,83,Wunderground v.1.15,2013-06-29 02:46:00,
2013-06-28 19:52:00,97.3,68.9,29.75,ESE,109,1.0,2.0,40,0.00,,,0.00,62,Wunderground v.1.15,2013-06-29 02:52:00,
2013-06-28 19:58:00,96.7,69.1,29.75,ESE,118,1.0,2.0,41,0.00,,,0.00,44,Wunderground v.1.15,2013-06-29 02:58:00,
2013-06-28 20:04:00,95.8,68.3,29.75,ESE,121,1.0,12.0,41,0.00,,,0.00,23,Wunderground v.1.15,2013-06-29 03:04:00,
2013-06-28 20:10:00,95.0,68.3,29.75,ESE,122,1.0,1.0,42,0.00,,,0.00,16,Wunderground v.1.15,2013-06-29 03:10:00,
2013-06-28 20:16:00,94.1,68.2,29.75,ESE,106,0.0,3.0,43,0.00,,,0.00,14,Wunderground v.1.15,2013-06-29 03:16:00,
2013-06-28 20:22:00,93.4,68.2,29.75,ESE,112,1.0,1.0,44,0.00,,,0.00,11,Wunderground v.1.15,2013-06-29 03:22:00,
2013-06-28 20:28:00,92.6,68.2,29.75,ESE,111,0.0,1.0,45,0.00,,,0.00,9,Wunderground v.1.15,2013-06-29 03:28:00,
2013-06-28 20:34:00,91.9,68.2,29.75,ESE,111,0.0,0.0,46,0.00,,,0.00,5,Wunderground v.1.15,2013-06-29 03:34:00,
2013-06-28 20:40:00,91.2,68.2,29.75,ESE,111,0.0,0.0,47,0.00,,,0.00,0,Wunderground v.1.15,2013-06-29 03:40:00,
2013-06-28 20:46:00,90.6,68.2,29.75,ESE,111,0.0,0.0,48,0.00,,,0.00,0,Wunderground v.1.15,2013-06-29 03:46:00,
2013-06-28 20:52:00,90.1,67.8,29.75,ESE,111,0.0,0.0,48,0.00,,,0.00,0,Wunderground v.1.15,2013-06-29 03:52:00,
2013-06-28 20:58:00,89.7,68.0,29.75,ESE,111,0.0,0.0,49,0.00,,,0.00,0,Wunderground v.1.15,2013-06-29 03:58:00,
2013-06-28 21:02:00,89.3,68.2,29.75,ESE,111,0.0,9.0,50,0.00,,,0.00,0,Wunderground v.1.15,2013-06-29 04:02:00,
2013-06-28 21:04:00,89.2,68.1,29.75,ESE,111,0.0,9.0,50,0.00,,,0.00,0,Wunderground v.1.15,2013-06-29 04:04:00,
2013-06-28 21:06:00,89.0,67.9,29.76,ESE,111,0.0,9.0,50,0.00,,,0.00,0,Wunderground v.1.15,2013-06-29 04:06:00,
2013-06-28 21:12:00,88.5,68.1,29.76,ESE,111,0.0,0.0,51,0.00,,,0.00,0,Wunderground v.1.15,2013-06-29 04:12:00,
2013-06-28 21:18:00,88.2,67.2,29.76,SSW,198,0.0,0.0,50,0.00,,,0.00,0,Wunderground v.1.15,2013-06-29 04:18:00,
2013-06-28 21:24:00,88.6,63.9,29.76,West,260,1.0,5.0,44,0.00,,,0.00,0,Wunderground v.1.15,2013-06-29 04:24:00,
2013-06-28 21:30:00,89.4,61.2,29.76,West,277,3.0,3.0,39,0.00,,,0.00,0,Wunderground v.1.15,2013-06-29 04:30:00,
2013-06-28 21:36:00,90.7,57.6,29.76,West,273,4.0,8.0,33,0.00,,,0.00,0,Wunderground v.1.15,2013-06-29 04:36:00,
2013-06-28 21:50:00,92.0,55.2,29.77,West,275,2.0,2.0,29,0.00,,,0.00,0,Wunderground v.1.15,2013-06-29 04:50:00,
2013-06-28 22:00:00,91.7,54.9,29.77,West,274,2.0,2.0,29,0.00,,,0.00,0,Wunderground v.1.15,2013-06-29 05:00:00,
2013-06-28 22:20:00,90.4,55.6,29.77,West,273,0.0,0.0,31,0.00,,,0.00,0,Wunderground v.1.15,2013-06-29 05:20:00,